カタログに戻る

CBERS 1 DEB

運用中SSO
NORAD 30791·DEBRIS·🇧🇷 Brazil🇨🇳 China

打ち上げ Oct 14, 1999 から Taiyuan Satellite Launch Center

Loading…

次のパス (今後24時間)

TLE

最新Source: Space-Track

元期: Sep 14, 2026, 10:16 UTC

1 30791U 99057PA  26257.42798762  .00002773  00000-0  48597-3 0  9992
2 30791  98.5246 324.8452 0006136  55.7962   6.4071 14.68626533 31628

AllMySatでCBERS 1 DEBをリアルタイム追跡

Download on the App Store